Home   Weather   Guangzhou   Past weeks

Flag for China Past Weather in Guangzhou, Guangdong, China — Yesterday and Last 2 Weeks

Now
73 °F

Clear.


Feels Like: 77 °F
Forecast: 55 / 73 °F
Wind: 10 mph from Northwest

Location: Canton Airport

Current Time: Dec 7, 2016 at 5:01:29 pm

Latest Report: Dec 7, 2016 at 4:30 pm


Visibility: 5 mi

Pressure: 30.04 "Hg

Humidity: 33%

Dew Point: 43 °F

Location of GuangzhouLocation

Past Weather in Guangzhou — Graph

°F

Guangzhou Temperature Yesterday

Maximum temperature yesterday: 72 °F (at 3:30 pm)
Minimum temperature yesterday: 63 °F (at 10:30 pm)
Average temperature yesterday: 67 °F

High & Low Weather Summary for the Past Weeks

 TemperatureHumidityPressure
High81 °F (Dec 5, 1:00 pm)94% (Nov 22, 5:30 pm)30.30 "Hg (Nov 22, 5:30 pm)
Low50 °F (Nov 26, 10:00 am)29% (Dec 7, 11:30 am)29.89 "Hg (Nov 22, 4:00 pm)
Average62 °F65%30.14 "Hg
* Reported Nov 22 4:00 pm — Dec 7 4:00 pm, Guangzhou, Weather by CustomWeather, © 2016

Note: Actual official high and low records may vary slightly from our data, if they occured in-between our weather recording intervals... More about our weather records

Advertising

Guangzhou Weather History for the Previous 24 Hours

Scroll right to see more
 ConditionsComfort  
Time TempWeatherWind HumidityBarometerVisibility
4:00 pm
Wed, Dec 7
73 °FClear.6 mph33%30.04 "Hg5 mi
3:30 pm73 °FClear.6 mph33%30.04 "Hg5 mi
3:00 pm73 °FClear.3 mph31%30.04 "Hg5 mi
2:30 pm73 °FClear.3 mph31%30.04 "Hg5 mi
2:00 pm73 °FClear.6 mph29%30.07 "Hg5 mi
1:30 pm72 °FClear.3 mph31%30.07 "Hg5 mi
1:00 pm72 °FClear.3 mph33%30.09 "Hg5 mi
12:30 pm72 °FClear.3 mph29%30.09 "Hg5 mi
12:00 pm70 °FClear.6 mph29%30.12 "Hg5 mi
11:30 am70 °FClear.3 mph29%30.15 "Hg5 mi
11:00 am68 °FClear.3 mph35%30.15 "Hg5 mi
10:30 am66 °FClear.1 mph35%30.18 "Hg5 mi
10:00 am64 °FClear.1 mph37%30.18 "Hg5 mi
9:30 am63 °FClear.1 mph42%30.18 "Hg5 mi
9:00 am61 °FClear.1 mph48%30.18 "Hg5 mi
8:30 am59 °FClear.1 mph51%30.18 "Hg5 mi
8:00 am57 °FSunny.3 mph55%30.18 "Hg10 mi
7:30 am54 °FPassing clouds.3 mph67%30.18 "HgN/A
7:00 am55 °FSunny.1 mph59%30.15 "Hg10 mi
6:30 am55 °FClear.1 mph59%30.15 "Hg10 mi
6:00 am55 °FClear.6 mph55%30.15 "Hg10 mi
5:30 am57 °FClear.1 mph51%30.15 "Hg10 mi
5:00 am57 °FClear.3 mph55%30.15 "Hg10 mi
4:30 am59 °FClear.3 mph48%30.15 "Hg10 mi
4:00 am59 °FClear.3 mph63%30.12 "Hg10 mi
3:30 am59 °FClear.No wind63%30.15 "Hg10 mi
3:00 am61 °FClear.1 mph59%30.15 "Hg10 mi
2:00 am61 °FClear.1 mph59%30.15 "Hg10 mi
1:30 am61 °FClear.No wind55%30.15 "Hg10 mi
1:00 am61 °FClear.1 mph59%30.15 "Hg10 mi
12:30 am63 °FClear.1 mph56%30.15 "Hg10 mi
12:00 am61 °FClear.1 mph63%30.15 "Hg10 mi
11:30 pm
Tue, Dec 6
63 °FClear.3 mph59%30.18 "Hg10 mi
11:00 pm63 °FClear.3 mph56%30.18 "Hg6 mi
10:30 pm63 °FClear.3 mph56%30.18 "Hg6 mi
10:00 pm64 °FClear.3 mph52%30.18 "Hg6 mi
9:30 pm64 °FClear.3 mph52%30.18 "Hg6 mi
9:00 pm64 °FClear.8 mph52%30.18 "Hg5 mi
8:30 pm64 °FClear.3 mph56%30.15 "Hg5 mi
8:00 pm64 °FClear.3 mph56%30.18 "Hg5 mi
7:30 pm66 °FPassing clouds.3 mph49%30.15 "HgN/A
7:00 pm66 °FClear.6 mph46%30.15 "Hg10 mi
6:30 pm66 °FPassing clouds.6 mph49%30.15 "HgN/A
6:00 pm68 °FPassing clouds.6 mph43%30.12 "HgN/A
5:30 pm68 °FSunny.8 mph40%30.12 "Hg10 mi
5:00 pm70 °FSunny.8 mph38%30.12 "Hg10 mi
Weather by CustomWeather, © 2016

See weather overviewHow to use our weather pages